Time,TemperatureF,DewpointF,PressureIn,WindDirection,WindDirectionDegrees,WindSpeedMPH,WindSpeedGustMPH,Humidity,HourlyPrecipIn,Conditions,Clouds,dailyrainin,SoftwareType,DateUTC
2013-02-03 00:00:00,46.7,46.7,30.35,NNE,32,0.0,0.0,100,0.00,,,0.00,Wunderground v.1.15,2013-02-03 08:00:00,
2013-02-03 00:30:00,46.8,46.8,30.34,NNE,32,0.0,0.0,100,0.00,,,0.00,Wunderground v.1.15,2013-02-03 08:30:00,
2013-02-03 01:00:00,46.7,46.7,30.34,NNE,32,0.0,0.0,100,0.00,,,0.00,Wunderground v.1.15,2013-02-03 09:00:00,
2013-02-03 01:30:00,46.6,46.6,30.33,NNE,32,0.0,0.0,100,0.00,,,0.00,Wunderground v.1.15,2013-02-03 09:30:00,
2013-02-03 02:00:00,46.5,46.5,30.32,NNE,32,0.0,0.0,100,0.00,,,0.00,Wunderground v.1.15,2013-02-03 10:00:00,
2013-02-03 02:30:00,46.4,46.4,30.32,NNE,32,0.0,0.0,100,0.00,,,0.00,Wunderground v.1.15,2013-02-03 10:30:00,
2013-02-03 03:00:00,46.3,46.3,30.31,NNE,32,0.0,0.0,100,0.00,,,0.00,Wunderground v.1.15,2013-02-03 11:00:00,
2013-02-03 03:30:00,46.2,46.2,30.31,NNE,32,0.0,0.0,100,0.00,,,0.00,Wunderground v.1.15,2013-02-03 11:30:00,
2013-02-03 04:00:00,46.1,46.1,30.31,NNE,32,0.0,0.0,100,0.00,,,0.00,Wunderground v.1.15,2013-02-03 12:00:00,
2013-02-03 04:30:00,46.1,46.1,30.32,NNE,32,0.0,0.0,100,0.00,,,0.00,Wunderground v.1.15,2013-02-03 12:30:00,
2013-02-03 05:00:00,46.0,46.0,30.32,NNE,32,0.0,0.0,100,0.00,,,0.00,Wunderground v.1.15,2013-02-03 13:00:00,
2013-02-03 05:30:00,45.9,45.9,30.31,NNE,32,0.0,0.0,100,0.00,,,0.00,Wunderground v.1.15,2013-02-03 13:30:00,
2013-02-03 06:00:00,45.8,45.8,30.31,NNE,32,0.0,0.0,100,0.00,,,0.00,Wunderground v.1.15,2013-02-03 14:00:00,
2013-02-03 06:30:00,45.7,45.7,30.31,NNE,32,0.0,0.0,100,0.00,,,0.00,Wunderground v.1.15,2013-02-03 14:30:00,
2013-02-03 07:00:00,45.6,45.6,30.31,NNE,32,0.0,0.0,100,0.00,,,0.00,Wunderground v.1.15,2013-02-03 15:00:00,
2013-02-03 07:30:00,45.5,45.5,30.32,NNE,32,0.0,0.0,100,0.00,,,0.00,Wunderground v.1.15,2013-02-03 15:30:00,
2013-02-03 08:00:00,45.5,45.5,30.31,NNE,32,0.0,0.0,100,0.00,,,0.00,Wunderground v.1.15,2013-02-03 16:00:00,
2013-02-03 08:30:00,45.8,45.8,30.32,NNE,32,0.0,0.0,100,0.00,,,0.00,Wunderground v.1.15,2013-02-03 16:30:00,
2013-02-03 09:00:00,46.3,46.3,30.32,NNE,32,0.0,0.0,100,0.00,,,0.00,Wunderground v.1.15,2013-02-03 17:00:00,
2013-02-03 09:30:00,47.0,47.0,30.33,NNE,32,0.0,0.0,100,0.00,,,0.00,Wunderground v.1.15,2013-02-03 17:30:00,
2013-02-03 10:00:00,47.9,46.8,30.33,NNE,32,0.0,0.0,96,0.00,,,0.00,Wunderground v.1.15,2013-02-03 18:00:00,
2013-02-03 10:30:00,48.9,47.0,30.34,SSE,151,0.0,0.0,93,0.00,,,0.00,Wunderground v.1.15,2013-02-03 18:30:00,
2013-02-03 11:00:00,49.8,48.1,30.34,SE,129,0.0,0.0,94,0.00,,,0.00,Wunderground v.1.15,2013-02-03 19:00:00,
2013-02-03 11:30:00,50.8,48.3,30.34,SE,129,0.0,0.0,91,0.00,,,0.00,Wunderground v.1.15,2013-02-03 19:30:00,
2013-02-03 12:00:00,51.5,47.5,30.33,ESE,114,0.0,0.0,86,0.00,,,0.00,Wunderground v.1.15,2013-02-03 20:00:00,
2013-02-03 12:30:00,51.6,46.9,30.32,ESE,120,0.0,0.0,84,0.00,,,0.00,Wunderground v.1.15,2013-02-03 20:30:00,
2013-02-03 13:00:00,51.4,47.0,30.31,ESE,120,0.0,0.0,85,0.00,,,0.00,Wunderground v.1.15,2013-02-03 21:00:00,
2013-02-03 13:30:00,51.2,45.9,30.29,ESE,120,0.0,0.0,82,0.00,,,0.00,Wunderground v.1.15,2013-02-03 21:30:00,
2013-02-03 14:00:00,51.0,48.2,30.28,ESE,120,0.0,0.0,90,0.00,,,0.00,Wunderground v.1.15,2013-02-03 22:00:00,
2013-02-03 14:30:00,50.9,46.6,30.27,ESE,120,0.0,0.0,85,0.00,,,0.00,Wunderground v.1.15,2013-02-03 22:30:00,
2013-02-03 15:00:00,50.8,47.7,30.28,ESE,120,0.0,0.0,89,0.00,,,0.00,Wunderground v.1.15,2013-02-03 23:00:00,
2013-02-03 15:30:00,50.5,48.0,30.28,ESE,120,0.0,0.0,91,0.00,,,0.00,Wunderground v.1.15,2013-02-03 23:30:00,
2013-02-03 16:00:00,50.3,48.1,30.28,ESE,120,0.0,0.0,92,0.00,,,0.00,Wunderground v.1.15,2013-02-04 00:00:00,
2013-02-03 16:30:00,49.9,47.7,30.28,SE,124,0.0,0.0,92,0.00,,,0.00,Wunderground v.1.15,2013-02-04 00:30:00,
2013-02-03 17:00:00,49.4,47.5,30.28,ESE,122,0.0,0.0,93,0.00,,,0.00,Wunderground v.1.15,2013-02-04 01:00:00,
2013-02-03 17:30:00,48.9,47.8,30.28,ESE,122,0.0,0.0,96,0.00,,,0.00,Wunderground v.1.15,2013-02-04 01:30:00,
2013-02-03 18:00:00,48.3,47.2,30.28,ESE,122,0.0,0.0,96,0.00,,,0.00,Wunderground v.1.15,2013-02-04 02:00:00,
2013-02-03 18:30:00,47.8,47.0,30.28,ESE,122,0.0,0.0,97,0.00,,,0.00,Wunderground v.1.15,2013-02-04 02:30:00,
2013-02-03 19:00:00,47.6,47.1,30.28,ESE,122,0.0,0.0,98,0.00,,,0.00,Wunderground v.1.15,2013-02-04 03:00:00,
2013-02-03 19:30:00,47.3,46.8,30.27,ESE,122,0.0,0.0,98,0.00,,,0.00,Wunderground v.1.15,2013-02-04 03:30:00,
2013-02-03 20:00:00,47.1,46.6,30.27,ESE,122,0.0,0.0,98,0.00,,,0.00,Wunderground v.1.15,2013-02-04 04:00:00,
2013-02-03 20:30:00,46.8,46.5,30.27,ESE,122,0.0,0.0,99,0.00,,,0.00,Wunderground v.1.15,2013-02-04 04:30:00,
2013-02-03 21:30:00,46.0,45.7,30.26,ESE,122,0.0,0.0,99,0.00,,,0.00,Wunderground v.1.15,2013-02-04 05:30:00,
2013-02-03 22:00:00,45.1,44.8,30.27,ESE,122,0.0,0.0,99,0.00,,,0.00,Wunderground v.1.15,2013-02-04 06:00:00,
2013-02-03 22:30:00,43.9,43.6,30.26,ESE,122,0.0,0.0,99,0.00,,,0.00,Wunderground v.1.15,2013-02-04 06:30:00,
2013-02-03 23:00:00,43.3,43.0,30.25,ESE,122,0.0,0.0,99,0.00,,,0.00,Wunderground v.1.15,2013-02-04 07:00:00,
2013-02-03 23:30:00,42.3,42.0,30.26,ESE,122,0.0,0.0,99,0.00,,,0.00,Wunderground v.1.15,2013-02-04 07:30:00,